Вернуться в каталог

THORAD AGENA D DEB

АктивенPO
NORAD 4842·DEBRIS·🇺🇸 United States

Запущен Apr 8, 1970 с Vandenberg Space Force Base

Loading…

Ближайшие Пролёты

TLE

Source: Space-Track
1 04842U 70025EE  26224.55055492  .00001558  00000-0  90128-3 0  9995
2 04842  99.9476 236.1643 0017168 104.2254 256.0822 14.10638698830855

Отслеживайте THORAD AGENA D DEB в реальном времени с AllMySat

Download on the App Store